Regional Weather Roundup
Issued by NWS

Home | Current Version | Previous Version | Graphics & Text | Print | Product List | Glossary On
Versions: 1 2 3 4 5 6 7 8 9 10 11 12 13 14 15 16 17 18 19 20 21 22 23 24 25 26 27 28 29 30 31 32 33 34 35 36 37 38 39 40 41 42 43 44 45 46 47 48 49 50
814
ASUS45 KBOI 231310
RWRID

IDAHO REGIONAL WEATHER ROUNDUP
NATIONAL WEATHER SERVICE BOISE ID
700 AM MDT MON MAY 23 2016

NOTE: "FAIR" INDICATES FEW OR NO CLOUDS BELOW 12000 FEET
WITH NO SIGNIFICANT WEATHER AND/OR OBSTRUCTIONS TO VISIBILITY

IDZ012-014-231400-
SOUTHWEST IDAHO


CITY           SKY/WX    TMP DP  RH WIND       PRES   REMARKS
BOISE          PTCLDY    45  37  73 SE9       29.91R
CALDWELL       PTCLDY    42  37  82 E5        29.92R
MOUNTAIN HOME  CLEAR     41  39  91 E10       29.91S
$$

IDZ016-017-231400-
SOUTHCENTRAL IDAHO


CITY           SKY/WX    TMP DP  RH WIND       PRES   REMARKS
BURLEY         CLEAR     38  35  89 S3        29.93S
JEROME         CLEAR     40  36  86 E7        29.93S
TWIN FALLS     CLEAR     41  34  76 S9        29.93R
$$

IDZ019>023-231400-
SOUTHEAST IDAHO


CITY           SKY/WX    TMP DP  RH WIND       PRES   REMARKS
IDAHO FALLS    CLEAR     37  33  85 SW7       29.94S WCI  32
POCATELLO      CLEAR     37  33  85 CALM      29.95S
REXBURG        SUNNY     41  31  67 S8        29.93S
$$

IDZ006-010-011-018-031-032-231400-
CENTRAL IDAHO MOUNTAINS


CITY           SKY/WX    TMP DP  RH WIND       PRES   REMARKS
MCCALL         CLOUDY    35  34  96 CALM      29.90S
HAILEY         PTCLDY    32  30  93 NW7       29.96F WCI  26
STANLEY          N/A     34  29  82 CALM      29.93S
SALMON         CLOUDY    43  34  70 CALM      29.87R
CHALLIS        CLOUDY    41  34  76 E3        29.90R
$$

IDZ002-004-006-007-026-231400-
NORTHERN IDAHO


CITY           SKY/WX    TMP DP  RH WIND       PRES   REMARKS
LEWISTON       CLOUDY    52  42  69 CALM      29.87R
LOWELL           N/A     48  46  93 CALM      29.89S
COEUR D`ALENE  CLOUDY    48  39  71 CALM      29.78S
MULLAN PASS    LGT SNOW  33  33 100 W8        29.77S VSB 1   WCI  26
$$




USA.gov is the U.S. government's official web portal to all federal, state and local government web resources and services.